[[{"header":{"parameterUnit":"m.s-1","parameterCategory":1,"la1":30.2991,"la2":30.254,"lo1":-89.0895,"lo2":-89.0444,"dy":0.0017,"dx":0.0017,"nx":28,"ny":28,"refTime":"2024-05-05T03:00:00:Z","depth":0,"parameterNumber":2,"parameterNumberName":"U-component_of_WINDS"},"data":[0,0,0,0,0,0,0,0,0,0,0,0,0,0,0,0,0,0,0,0,0,0,0,0,0,0,0,0,0,0,0,0,0,0,0,0,0,0,0,0,0,0,0,0,0,0,0,0,0,0,0,0,0,0,0,0,0,0,-1.9231,-1.9231,0,-1.9246,-1.9246,-1.9246,-1.9242,-1.9241,-1.9241,-1.9241,-1.9255,-1.9256,-1.9256,0,0,0,0,0,0,0,0,0,0,0,0,0,-1.9199,-1.92,-1.9231,-1.9231,-1.9232,-1.9246,-1.9246,-1.9246,-1.9242,-1.9241,-1.9241,-1.9241,-1.9255,-1.9255,-1.9256,0,0,0,0,0,0,0,0,0,0,0,0,0,-1.9214,-1.92,-1.9231,-1.9231,-1.9231,-1.9246,-1.9246,-1.9246,-1.9242,-1.9241,-1.9241,-1.924,-1.9254,-1.9255,-1.9256,-1.9272,0,0,-1.9259,-1.926,0,0,0,0,0,0,0,0,-1.9213,-1.9215,-1.9231,-1.9231,-1.9231,-1.9242,-1.924,-1.9255,-1.9242,-1.9238,-1.9241,-1.924,-1.9251,-1.9252,-1.9256,-1.9273,-1.9273,-1.9259,-1.926,-1.9261,-1.9261,0,0,0,0,0,0,0,-1.9212,-1.9214,-1.9237,-1.9231,-1.9231,-1.923,-1.9232,-1.9243,-1.9247,-1.9238,-1.9238,-1.924,-1.9251,-1.9255,-1.9256,-1.9273,-1.9259,-1.926,-1.9261,-1.9261,-1.9305,-1.9305,0,0,0,0,0,0,-1.9211,-1.9213,-1.9237,-1.9238,-1.9221,-1.9231,-1.9233,-1.9239,-1.9247,-1.9247,-1.924,-1.9239,-1.9253,-1.9255,-1.9257,-1.9275,-1.9261,-1.9261,-1.9262,-1.9304,-1.9305,-1.9305,0,0,0,0,0,0,-1.921,-1.9213,-1.9236,-1.9225,-1.9228,-1.9232,-1.9239,-1.9239,-1.9243,-1.9248,-1.9249,-1.9243,-1.9253,-1.9255,-1.9268,-1.9276,-1.9262,-1.9263,-1.9304,-1.9304,-1.9305,-1.9313,0,0,0,0,0,0,-1.9209,-1.9213,-1.9218,-1.9226,-1.9229,-1.9247,-1.9239,-1.924,-1.9245,-1.9244,-1.9251,-1.9252,-1.9253,-1.9267,-1.9269,-1.9277,-1.9264,-1.9303,-1.9304,-1.9305,-1.9312,-1.9314,-1.9316,0,0,0,0,0,-1.9208,-1.922,-1.9219,-1.9221,-1.9236,-1.9248,-1.925,-1.9251,-1.9246,-1.9252,-1.9255,-1.9252,-1.9275,-1.9268,-1.9271,-1.9279,-1.9302,-1.9304,-1.9305,-1.9312,-1.9314,-1.9316,0,0,0,0,0,0,-1.9212,-1.922,-1.9219,-1.9234,-1.924,-1.9247,-1.9254,-1.9253,-1.9261,-1.926,-1.926,-1.9262,-1.9276,-1.9279,-1.9271,-1.9295,-1.9288,-1.929,-1.9292,-1.9294,-1.9296,-1.9295,-1.9264,0,0,0,0,0,-1.9215,-1.9224,-1.9231,-1.9243,-1.9246,-1.925,-1.9255,-1.9255,-1.9262,-1.9265,-1.9269,-1.9275,-1.9284,-1.929,-1.9298,-1.9314,-1.9315,-1.9321,-1.9322,-1.9324,-1.9325,-1.9334,-1.9336,-1.931,-1.931,-1.9309,0,0,-1.922,-1.9226,-1.9231,-1.9244,-1.9249,-1.9258,-1.9252,-1.9262,-1.9269,-1.9266,-1.9279,-1.9282,-1.929,-1.9304,-1.9311,-1.9307,-1.9333,-1.9325,-1.9327,-1.9327,-1.9335,-1.9338,-1.934,-1.931,-1.931,-1.931,0,0,-1.9235,-1.924,-1.9251,-1.9257,-1.9265,-1.9268,-1.927,-1.9278,-1.928,-1.9293,-1.9292,-1.93,-1.9315,-1.9321,-1.9325,-1.9345,-1.9342,-1.9347,-1.9356,-1.9365,-1.9367,-1.9369,-1.9375,-1.9378,-1.9349,-1.9349,-1.9349,0,-1.924,-1.9254,-1.9257,-1.9267,-1.9273,-1.9272,-1.9283,-1.9288,-1.9299,-1.9302,-1.9299,-1.9319,-1.9323,-1.9339,-1.9344,-1.9348,-1.9351,-1.9346,-1.9367,-1.9368,-1.937,-1.9376,-1.9379,-1.9349,-1.9349,-1.9349,-1.9349,0,-1.9261,-1.9271,-1.9279,-1.9289,-1.9296,-1.9307,-1.9311,-1.9318,-1.9318,-1.9321,-1.9335,-1.9341,-1.9351,-1.9356,-1.9356,-1.9372,-1.937,-1.9366,-1.9359,-1.9373,-1.9379,-1.9381,-1.935,-1.935,-1.935,-1.935,0,0,-1.9276,-1.929,-1.9292,-1.9298,-1.9308,-1.9315,-1.9327,-1.9337,-1.9343,-1.9351,-1.936,-1.9374,-1.9371,-1.9377,-1.9378,-1.9386,-1.94,-1.9382,-1.9382,-1.9384,-1.9419,-1.942,-1.9423,-1.94,-1.94,-1.94,-1.9418,0,-1.9291,-1.9311,-1.9314,-1.9332,-1.9341,-1.9341,-1.9351,-1.9359,-1.9362,-1.9371,-1.9376,-1.9385,-1.9381,-1.9385,-1.9393,-1.9397,-1.9407,-1.9396,-1.9408,-1.9408,-1.9405,-1.9426,-1.9428,-1.9444,-1.942,-1.9421,-1.9421,0,-1.9311,-1.932,-1.9338,-1.9348,-1.9352,-1.9361,-1.9371,-1.938,-1.9389,-1.9391,-1.9398,-1.9399,-1.9411,-1.9404,-1.9421,-1.9413,-1.9419,-1.9422,-1.9422,-1.9422,-1.9414,-1.9426,-1.9449,-1.9451,-1.9425,-1.9424,-1.9424,0,-1.932,-1.9337,-1.9351,-1.9355,-1.9367,-1.9373,-1.9378,-1.9387,-1.9393,-1.9402,-1.9407,-1.9417,-1.9422,-1.9431,-1.9434,-1.9429,-1.945,-1.9444,-1.9452,-1.9452,-1.9456,-1.9455,-1.9479,-1.9461,-1.9461,-1.9461,-1.9461,0,-1.9336,-1.9347,-1.9355,-1.9363,-1.9376,-1.938,-1.9393,-1.9398,-1.9405,-1.9415,-1.9416,-1.9424,-1.9429,-1.9439,-1.9442,-1.9455,-1.9458,-1.946,-1.946,-1.9459,-1.9459,-1.9461,-1.946,-1.9461,-1.9461,-1.9461,-1.9461,0,-1.9347,-1.9353,-1.9368,-1.9379,-1.9382,-1.939,-1.9399,-1.9408,-1.9412,-1.9424,-1.9427,-1.9434,-1.9445,-1.945,-1.9464,-1.9466,-1.9481,-1.9481,-1.9478,-1.9478,-1.9486,-1.9485,-1.9512,-1.9515,-1.9496,-1.9496,-1.9496,0,-1.9357,-1.9366,-1.9377,-1.9384,-1.939,-1.94,-1.9407,-1.9412,-1.9419,-1.943,-1.9437,-1.9449,-1.9458,-1.9476,-1.9483,-1.9493,-1.9493,-1.9502,-1.9495,-1.9493,-1.9493,-1.9492,-1.9492,-1.9503,-1.9503,-1.9503,-1.9503,0,-1.9373,-1.9375,-1.9385,-1.9397,-1.9405,-1.9414,-1.9423,-1.9428,-1.9435,-1.9443,-1.9455,-1.9462,-1.9477,-1.9488,-1.95,-1.9505,-1.9505,-1.9506,-1.9508,-1.9506,-1.9504,-1.9505,-1.9481,-1.9505,-1.9505,-1.9504,-1.9504,-1.9504,-1.9383,-1.9391,-1.9401,-1.9412,-1.942,-1.9428,-1.9437,-1.9443,-1.9453,-1.9466,-1.9468,-1.9481,-1.949,-1.9506,-1.9512,-1.9522,-1.952,-1.9523,-1.9524,-1.9525,-1.9525,-1.9504,-1.9524,-1.9524,-1.9524,-1.9524,-1.9524,0,-1.9398,-1.9405,-1.9416,-1.9429,-1.9438,-1.9438,-1.9448,-1.9456,-1.9467,-1.9476,-1.9486,-1.95,-1.9512,-1.9519,-1.9531,-1.9538,-1.9538,-1.954,-1.9539,-1.9541,-1.9526,-1.9523,-1.954,-1.954,-1.954,-1.954,-1.954,-1.954,-1.9408,-1.9421,-1.9426,-1.9443,-1.945,-1.9463,-1.9469,-1.9477,-1.9484,-1.95,-1.951,-1.9515,-1.9524,-1.9536,-1.9547,-1.9549,-1.9553,-1.9555,-1.9557,-1.9543,-1.9542,-1.954,-1.9537,-1.9556,-1.9556,-1.9571,-1.9571,-1.9571]},{"header":{"parameterUnit":"m.s-1","parameterCategory":1,"la1":30.2991,"la2":30.254,"lo1":-89.0895,"lo2":-89.0444,"dy":0.0017,"dx":0.0017,"nx":28,"ny":28,"refTime":"2024-05-05T03:00:00:Z","depth":0,"parameterNumber":3,"parameterNumberName":"V-component_of_WINDS"},"data":[0,0,0,0,0,0,0,0,0,0,0,0,0,0,0,0,0,0,0,0,0,0,0,0,0,0,0,0,0,0,0,0,0,0,0,0,0,0,0,0,0,0,0,0,0,0,0,0,0,0,0,0,0,0,0,0,0,0,3.7179,3.7179,0,3.7234,3.7235,3.7235,3.7217,3.7216,3.7215,3.7214,3.7268,3.727,3.7273,0,0,0,0,0,0,0,0,0,0,0,0,0,3.7054,3.7056,3.7179,3.7179,3.718,3.7234,3.7235,3.7236,3.7218,3.7216,3.7215,3.7213,3.7267,3.727,3.7273,0,0,0,0,0,0,0,0,0,0,0,0,0,3.7108,3.7057,3.7178,3.7178,3.7178,3.7234,3.7235,3.7236,3.7218,3.7216,3.7214,3.7213,3.7266,3.727,3.7273,3.7333,0,0,3.7285,3.7287,0,0,0,0,0,0,0,0,3.7105,3.7113,3.7177,3.7178,3.7178,3.7217,3.7211,3.7268,3.7218,3.7203,3.7214,3.7212,3.7252,3.7257,3.7271,3.7335,3.7337,3.7285,3.7288,3.7289,3.729,0,0,0,0,0,0,0,3.7102,3.711,3.72,3.7178,3.7179,3.7173,3.7179,3.7221,3.7237,3.7204,3.7203,3.721,3.7252,3.7268,3.7272,3.7338,3.7285,3.7289,3.7291,3.7293,3.7454,3.7455,0,0,0,0,0,0,3.7098,3.7107,3.7199,3.7202,3.7137,3.7177,3.7184,3.7206,3.7236,3.7239,3.7211,3.7209,3.7262,3.7268,3.7274,3.7346,3.7289,3.7293,3.7295,3.7452,3.7454,3.7456,0,0,0,0,0,0,3.7095,3.7106,3.7196,3.7155,3.7166,3.7181,3.7207,3.7208,3.7224,3.7242,3.7244,3.7224,3.7261,3.7269,3.7318,3.7348,3.7295,3.7298,3.7449,3.7452,3.7455,3.749,0,0,0,0,0,0,3.7092,3.7105,3.7129,3.7155,3.7168,3.7241,3.7209,3.7211,3.7231,3.7228,3.7255,3.7257,3.726,3.7313,3.7322,3.7352,3.7301,3.7447,3.7451,3.7454,3.7486,3.7494,3.75,0,0,0,0,0,3.7087,3.7136,3.713,3.7141,3.7198,3.7243,3.725,3.7253,3.7233,3.7257,3.7268,3.7257,3.7343,3.7318,3.7329,3.736,3.7445,3.7449,3.7454,3.7483,3.7492,3.75,0,0,0,0,0,0,3.7111,3.7139,3.7133,3.7192,3.7215,3.724,3.7269,3.7262,3.7291,3.7287,3.7288,3.7294,3.7346,3.7357,3.733,3.7419,3.7391,3.7398,3.741,3.7418,3.7425,3.7422,3.7304,0,0,0,0,0,3.7123,3.7158,3.718,3.723,3.7242,3.7254,3.7273,3.7273,3.7297,3.7307,3.7322,3.7344,3.7377,3.7398,3.7428,3.7487,3.7493,3.7514,3.7521,3.7526,3.7533,3.7565,3.7575,3.7471,3.7471,3.7471,0,0,3.7149,3.7168,3.719,3.7235,3.7253,3.7289,3.7262,3.7301,3.7327,3.7312,3.7361,3.7372,3.7398,3.7453,3.7477,3.7464,3.7562,3.7532,3.7536,3.754,3.7571,3.7581,3.7589,3.7474,3.7473,3.7473,0,0,3.7213,3.7232,3.7275,3.7294,3.7322,3.733,3.734,3.7366,3.7373,3.7422,3.7412,3.7442,3.7498,3.7516,3.7533,3.7605,3.7595,3.7614,3.7651,3.7683,3.7691,3.7698,3.7724,3.7734,3.762,3.762,3.762,0,3.7241,3.7296,3.7298,3.7338,3.7358,3.7347,3.7391,3.7409,3.7445,3.7459,3.7443,3.7513,3.7529,3.7588,3.7606,3.7619,3.7631,3.7612,3.769,3.7697,3.7704,3.7729,3.7739,3.7622,3.7622,3.7622,3.7622,0,3.7329,3.7367,3.7398,3.7435,3.7458,3.75,3.7508,3.7531,3.7529,3.7537,3.7587,3.7606,3.7641,3.7654,3.7652,3.7713,3.7704,3.7689,3.7661,3.7716,3.774,3.7749,3.7626,3.7625,3.7624,3.7624,0,0,3.7412,3.7449,3.7461,3.7477,3.7507,3.7536,3.7577,3.7611,3.7631,3.7656,3.769,3.7737,3.7724,3.7743,3.7742,3.777,3.7826,3.7752,3.7752,3.7766,3.7896,3.7908,3.7919,3.782,3.7822,3.7823,3.7894,0,3.748,3.7553,3.7556,3.7622,3.7657,3.7647,3.7682,3.7704,3.7713,3.7743,3.7752,3.7786,3.7765,3.7776,3.7803,3.7814,3.7853,3.7809,3.7852,3.7853,3.7847,3.7931,3.7944,3.801,3.7903,3.7905,3.7906,0,3.757,3.7599,3.7669,3.7694,3.7709,3.7741,3.7773,3.7802,3.7826,3.783,3.7852,3.7847,3.7888,3.7858,3.7914,3.7884,3.7901,3.7909,3.7912,3.7917,3.7884,3.794,3.8031,3.8042,3.792,3.7919,3.7918,0,3.7625,3.7681,3.773,3.7745,3.7775,3.7798,3.7811,3.7834,3.7854,3.7882,3.7895,3.7926,3.7944,3.7968,3.7972,3.7949,3.8028,3.7998,3.8033,3.8033,3.8051,3.805,3.8148,3.806,3.806,3.806,3.806,0,3.7702,3.7745,3.7756,3.7786,3.7834,3.7837,3.7884,3.7895,3.7915,3.7947,3.7939,3.7969,3.7972,3.8002,3.8005,3.8052,3.8059,3.8064,3.8064,3.8065,3.8065,3.8078,3.8074,3.8063,3.8062,3.8062,3.8061,0,3.7772,3.7781,3.7834,3.7858,3.7865,3.79,3.792,3.7949,3.7956,3.7997,3.8007,3.8018,3.8054,3.806,3.8101,3.8103,3.8159,3.8154,3.8152,3.8152,3.8186,3.8184,3.8297,3.8312,3.8213,3.8214,3.8215,0,3.7821,3.7855,3.7883,3.7904,3.7919,3.7953,3.7975,3.7977,3.8,3.8029,3.8055,3.8089,3.8118,3.8175,3.8187,3.8218,3.8215,3.8252,3.8219,3.822,3.8217,3.8215,3.8219,3.8259,3.826,3.8261,3.8262,0,3.7908,3.7911,3.7943,3.7976,3.8002,3.8028,3.8052,3.807,3.8075,3.8101,3.8138,3.8159,3.8202,3.8237,3.8268,3.8281,3.8273,3.8272,3.8282,3.8284,3.8281,3.8284,3.817,3.8269,3.8269,3.8268,3.8268,3.8267,3.7971,3.8,3.8025,3.806,3.8079,3.8102,3.813,3.8142,3.8173,3.8208,3.8207,3.8248,3.827,3.8312,3.8326,3.8357,3.8345,3.8359,3.8363,3.8367,3.8371,3.8275,3.8363,3.8363,3.8362,3.8362,3.8362,0,3.8059,3.8074,3.8106,3.8141,3.8169,3.8158,3.8185,3.8208,3.8245,3.8266,3.8294,3.8337,3.837,3.8384,3.8417,3.8439,3.8436,3.8448,3.8447,3.845,3.8379,3.8368,3.845,3.845,3.845,3.845,3.845,3.845,3.8108,3.8157,3.8163,3.8221,3.8235,3.8276,3.8292,3.8313,3.833,3.8378,3.8406,3.8415,3.8434,3.8468,3.8498,3.8501,3.8514,3.8528,3.8529,3.8463,3.8455,3.8446,3.8436,3.853,3.853,3.8597,3.8598,3.8598]}]]